Phenix City, Alabama, United States (36867)
Lat: 32.47N, Lon: 85W
Wx Zone: ALZ048
Local Info
Past Weather Observations for Today

NOTE: This archive is for the closest National Weather Service station to Phenix City. Information may differ from the station used for current weather conditions.

Click here for Long-term Archive

Time Weather Temperature Dewpoint Humidity Pressure Winds Precip Visibility
21:51
Mostly Cloudy
52°F / 11°C 39°F / 4°C 62% 29.98 in
(1015 mb)
NNW 27.6 mph
(NNW 44 kph)
- 10SM
20:51
Partly Cloudy
54°F / 12°C 45°F / 7°C 72% 29.98 in
(1015 mb)
N 16.1 mph
(N 26 kph)
- 10SM
19:51
Clear
55°F / 13°C 43°F / 6°C 63% 29.95 in
(1014 mb)
NW 4.6 mph
(NW 7 kph)
- 10SM
18:51
Clear
61°F / 16°C 39°F / 4°C 45% 29.92 in
(1013 mb)
N 4.6 mph
(N 7 kph)
- 10SM
17:51
Mostly Cloudy
63°F / 17°C 39°F / 4°C 42% 29.92 in
(1013 mb)
N 10.4 mph
(N 17 kph)
- 10SM
16:51
Mostly Cloudy
64°F / 18°C 39°F / 4°C 40% 29.92 in
(1013 mb)
N 9.2 mph
(N 15 kph)
- 10SM
15:51
Partly Cloudy
66°F / 19°C 37°F / 3°C 35% 29.89 in
(1012 mb)
NNW 5.8 mph
(NNW 9 kph)
- 10SM
14:51
Clear
66°F / 19°C 37°F / 3°C 35% 29.89 in
(1012 mb)
N 11.5 mph
(N 19 kph)
- 10SM
13:51
Mostly Cloudy
68°F / 20°C 37°F / 3°C 33% 29.89 in
(1012 mb)
N 10.4 mph
(N 17 kph)
- 10SM
12:51
Partly Cloudy
66°F / 19°C 39°F / 4°C 37% 29.92 in
(1013 mb)
NW 6.9 mph
(NW 11 kph)
- 10SM
11:51
Partly Cloudy
64°F / 18°C 39°F / 4°C 40% 29.95 in
(1014 mb)
NW 5.8 mph
(NW 9 kph)
- 10SM
10:51
Clear
63°F / 17°C 39°F / 4°C 42% 29.98 in
(1015 mb)
N 5.8 mph
(N 9 kph)
- 10SM
09:51
Clear
57°F / 14°C 41°F / 5°C 55% 29.98 in
(1015 mb)
N 5.8 mph
(N 9 kph)
- 10SM
08:51
Clear
52°F / 11°C 43°F / 6°C 72% 29.98 in
(1015 mb)
N 5.8 mph
(N 9 kph)
- 10SM
07:51
Clear
48°F / 9°C 39°F / 4°C 71% 29.98 in
(1015 mb)
NW 4.6 mph
(NW 7 kph)
- 10SM
06:51
Clear
46°F / 8°C 39°F / 4°C 76% 29.98 in
(1015 mb)
NNW 6.9 mph
(NNW 11 kph)
- 10SM
05:51
Clear
48°F / 9°C 39°F / 4°C 71% 29.95 in
(1014 mb)
N 5.8 mph
(N 9 kph)
- 10SM
04:51
Clear
48°F / 9°C 39°F / 4°C 71% 29.95 in
(1014 mb)
NNW 5.8 mph
(NNW 9 kph)
- 10SM
03:51
Clear
50°F / 10°C 39°F / 4°C 67% 29.95 in
(1014 mb)
NNE 4.6 mph
(NNE 7 kph)
- 10SM
02:51
Clear
50°F / 10°C 39°F / 4°C 67% 29.95 in
(1014 mb)
Calm - 10SM
01:51
Clear
48°F / 9°C 41°F / 5°C 76% 29.98 in
(1015 mb)
N 4.6 mph
(N 7 kph)
- 10SM
00:51
Clear
48°F / 9°C 41°F / 5°C 76% 29.98 in
(1015 mb)
Calm - 10SM
Time Weather Temperature Dewpoint Humidity Pressure Winds Precip Visibility


Weather for websites

WeatherForYou.com, LLC is not responsible for any damages or problems caused by this service. Current weather conditions are obtained from the closest station including government and personal stations which may have varying degrees of accuracy. Weather forecasts are derived from the NOAA NDFD. Like all things, this site belongs to Jesus Christ... He just trusts me to maintain it. If you have any questions or comments email webmaster@weatherforyou.com

Copyright © 2014, WeatherForYou.com LLC. All rights reserved.